Tracking 19969 objects as of 13-Nov-2019
Live streaming from Space Station
objects crossing your sky now
Track the group of recently launched Starlink satellites

ARIANE 44L R/B


ARIANE 44L R/B is no longer on orbit


NORAD ID: 26039
Int'l Code: 1999-071B
Perigee: N/A
Apogee: N/A
Inclination: N/A
Period: N/A
Semi major axis: N/A
RCS: N/A
Launch date: December 22, 1999
Source: France (FR)
Launch site: FRENCH GUIANA (FRGUI)
Decay date: 2014-04-11

Note: This is a ROCKET BODY
aabbcc
Your satellite tracking list
Your tracking list is empty




NASA's NSSDC Master Catalog

Two Line Element Set (TLE):
1 26039U 99071B   14100.56217171  .35622766 -28703-4  13526-2 0  9993
2 26039 005.2127 039.1465 0580253 230.3706 310.6080 15.15409728168220
Source of the keplerian elements: AFSPC